Regional Weather Roundup
Issued by NWS

Home | Current Version | Previous Version | Graphics & Text | Print | Product List | Glossary Off
Versions: 1 2 3 4 5 6 7 8 9 10 11 12 13 14 15 16 17 18 19 20 21 22 23 24 25 26 27 28 29 30 31 32 33 34 35 36 37 38 39 40 41 42 43 44 45 46 47 48 49 50

000
ASUS43 KTOP 260159
RWRKS

WEATHER ROUNDUP FOR KANSAS
NATIONAL WEATHER SERVICE GOODLAND KS
900 PM CDT SAT APR 25 2015

NOTE:  "FAIR" INDICATES FEW OR NO CLOUDS BELOW 12,000 FEET WITH NO
SIGNIFICANT WEATHER AND/OR OBSTRUCTIONS TO VISIBILITY.

KSZ001>006-013>018-027>032-041>047-260300-
NORTHWEST KANSAS

CITY           SKY/WX    TMP DP  RH WIND       PRES   REMARKS
GOODLAND       CLEAR     58  46  64 E14       29.72R
HAYS           PTCLDY    55  46  71 E12       29.75R
HILL CITY      MOCLDY    55  50  83 E15       29.76R
RUSSELL        CLOUDY    54  51  90 NE15      29.74R
$$

KSZ061>065-074>080-084>089-260300-
SOUTHWEST KANSAS

CITY           SKY/WX    TMP DP  RH WIND       PRES   REMARKS
DODGE CITY     CLEAR     62  52  69 NE12      29.71R
ELKHART          N/A     64  34  32 E12         N/A
GARDEN CITY    PTCLDY    64  51  62 E17       29.69R
GREAT BEND     PTCLDY    57  52  82 NE14      29.73R
LIBERAL        CLEAR     70  37  30 E8        29.68R
$$

KSZ066>073-081>083-090>101-260300-
SOUTHEAST KANSAS

CITY           SKY/WX    TMP DP  RH WIND       PRES   REMARKS
CHANUTE        CLOUDY    59  55  87 N13       29.72R
COFFEYVILLE    CLEAR     64  55  72 N10       29.68R
HUTCHINSON     PTCLDY    60  53  77 NE13G18   29.72R
MEDICINE LODGE   N/A     65  54  67 NE8       29.68R
NEWTON         CLEAR     55  48  76 NE12      29.75R
PARSONS        CLEAR     62  56  80 N8        29.71R
WICHITA INTL   CLEAR     63  54  72 NE16      29.71R
WICHITA JABRA  CLEAR     59  53  80 NE12      29.71R
WINFIELD       CLEAR     68  54  60 NE12      29.69R
$$

KSZ007>012-019>026-033>040-048>060-102>105-260300-
NORTHEAST KANSAS

CITY           SKY/WX    TMP DP  RH WIND       PRES   REMARKS
CONCORDIA      CLOUDY    50  47  89 NE13      29.79R
EMPORIA        CLOUDY    54  50  86 NE14      29.75R
LAWRENCE       CLOUDY    51  46  83 N13       29.77R
MANHATTAN      CLOUDY    52  49  89 NE14      29.78R FOG
OLATHE IND     CLOUDY    50  48  93 N12       29.76R
OLATHE EXE     CLOUDY    51  48  89 N13       29.74R
SALINA         CLOUDY    56  49  77 NE12      29.77R
TOPEKA BILLARD CLOUDY    51  47  86 N14       29.78R
TOPEKA FORBES  CLOUDY    52  48  86 N12       29.76R FOG
$$



USA.gov is the U.S. government's official web portal to all federal, state and local government web resources and services.